Mobile, AL

6:29 PM CDT on July 25, 2016 (GMT -0500)
Mobile Downtown

Weather History for KBFM - May, 2012

Change the Weather History Date:

Monday, May 21, 2012

  Actual Average Record
Temperature  
Mean Temperature 76 °F -  
Max Temperature 90 °F 82 °F 90 °F (2012)
Min Temperature 64 °F 64 °F 52 °F (2002)
Cooling Degree Days 11    
Growing Degree Days 26 (Base 50)    
Moisture  
Dew Point 63 °F    
Average Humidity 68    
Maximum Humidity 93    
Minimum Humidity 42    
Precipitation  
Precipitation 0.82 in - - ()
Sea Level Pressure  
Sea Level Pressure 30.03 in    
Wind  
Wind Speed 5 mph (NW)    
Max Wind Speed 23 mph    
Max Gust Speed 36 mph    
Visibility 9 miles    
Events Rain , Thunderstorm    
Averages and records for this station are not official NWS values.
T = Trace of Precipitation, MM = Missing Value Source: NWS Daily Summary

Daily Weather History Graph

Daily Weather History Graph

Search for Another Location

Airport or City:

Trip Planner

Search our weather history database for the weather conditions in past years. The results will help you decide how hot, cold, wet, or windy it might be!

Date:

Astronomy

May. 21, 2012 Rise Set
Actual Time 5:54 AM CDT 7:44 PM CDT
Civil Twilight 5:27 AM CDT 8:10 PM CDT
Nautical Twilight 4:55 AM CDT 8:43 PM CDT
Astronomical Twilight 4:20 AM CDT 9:17 PM CDT
Moon 6:17 AM CDT (5/21) 8:32 PM CDT (5/21)
Length of Visible Light 14h 43m
Length of Day
13h 50m
New Moon, 0% of the Moon is Illuminated
May 21
New Moon
May 28
First Quarter
Jun 4
Full
Jun 11
Last Quarter
Jun 19
New

Hourly Weather History & Observations

Time (CDT) Temp. Heat Index Dew Point Humidity Pressure Visibility Wind Dir Wind Speed Gust Speed Precip Events Conditions
12:53 AM 73.9 °F - 62.1 °F 66% 30.06 in 10.0 mi West 4.6 mph - N/A   Clear
1:53 AM 73.0 °F - 60.1 °F 64% 30.05 in 10.0 mi West 4.6 mph - N/A   Clear
2:53 AM 71.1 °F - 60.1 °F 68% 30.04 in 10.0 mi West 3.5 mph - N/A   Clear
3:53 AM 69.1 °F - 61.0 °F 75% 30.04 in 10.0 mi WNW 3.5 mph - N/A   Clear
4:53 AM 64.9 °F - 61.0 °F 87% 30.05 in 10.0 mi Calm Calm - N/A   Clear
5:53 AM 64.9 °F - 61.0 °F 87% 30.06 in 10.0 mi Calm Calm - N/A   Clear
6:53 AM 69.1 °F - 62.1 °F 78% 30.07 in 10.0 mi NW 4.6 mph - N/A   Clear
7:53 AM 75.9 °F - 61.0 °F 60% 30.07 in 10.0 mi NNW 3.5 mph - N/A   Clear
8:53 AM 82.0 °F 82.4 °F 60.1 °F 47% 30.08 in 10.0 mi NNW 5.8 mph - N/A   Clear
9:53 AM 84.0 °F 84.5 °F 62.1 °F 47% 30.08 in 10.0 mi East 4.6 mph - N/A   Clear
10:53 AM 86.0 °F 86.3 °F 62.1 °F 44% 30.06 in 10.0 mi Variable 4.6 mph - N/A   Clear
11:53 AM 88.0 °F 88.4 °F 62.1 °F 42% 30.05 in 10.0 mi East 8.1 mph - N/A   Scattered Clouds
12:53 PM 87.1 °F 87.5 °F 62.1 °F 43% 30.04 in 10.0 mi ENE 5.8 mph - N/A   Mostly Cloudy
1:53 PM 86.0 °F 86.1 °F 61.0 °F 43% 30.02 in 10.0 mi North 9.2 mph - N/A Thunderstorm Thunderstorm
2:53 PM 75.9 °F - 69.1 °F 79% 30.01 in 10.0 mi NNW 8.1 mph - 0.03 in Rain , Thunderstorm Light Thunderstorms and Rain
3:53 PM 84.0 °F 85.4 °F 64.0 °F 51% 29.99 in 10.0 mi Calm Calm - 0.00 in   Scattered Clouds
4:53 PM 82.9 °F 84.6 °F 64.9 °F 54% 29.97 in 10.0 mi SW 3.5 mph - N/A   Clear
5:53 PM 84.0 °F 86.3 °F 66.0 °F 55% 29.96 in 10.0 mi South 5.8 mph - N/A   Scattered Clouds
6:27 PM 82.4 °F 84.6 °F 66.2 °F 58% 29.98 in 10.0 mi Variable 3.5 mph - N/A Thunderstorm Thunderstorm
6:49 PM 73.4 °F - 66.2 °F 78% 30.01 in 9.0 mi NNE 19.6 mph 32.2 mph 0.02 in Rain , Thunderstorm Light Thunderstorms and Rain
6:53 PM 73.0 °F - 66.0 °F 79% 30.03 in 2.0 mi North 23.0 mph 31.1 mph 0.08 in Rain , Thunderstorm Heavy Thunderstorms and Rain
7:06 PM 71.6 °F - 62.6 °F 73% 30.03 in 1.0 mi ENE 12.7 mph 35.7 mph 0.50 in Rain , Thunderstorm Heavy Thunderstorms and Rain
7:31 PM 69.8 °F - 64.4 °F 83% 30.00 in 3.0 mi SSW 9.2 mph - 0.70 in Rain , Thunderstorm Light Thunderstorms and Rain
7:53 PM 69.1 °F - 64.0 °F 84% 30.00 in 10.0 mi SW 6.9 mph - 0.71 in   Mostly Cloudy
8:53 PM 69.1 °F - 64.9 °F 87% 30.00 in 10.0 mi Calm Calm - N/A   Clear
9:53 PM 66.9 °F - 64.9 °F 93% 30.01 in 8.0 mi Calm Calm - N/A   Clear
10:53 PM 69.1 °F - 66.9 °F 93% 30.00 in 7.0 mi Calm Calm - N/A   Scattered Clouds
11:53 PM 69.1 °F - 64.9 °F 87% 29.99 in 10.0 mi West 5.8 mph - N/A   Clear